KAP707 KBOS-KHYA

Flight info

Callsign KAP707
Flight time 0h 20m
Altitude 5000
Route LOGAN4 DUNKK V141 GAILS
Aircraft C402/L-SDFR/C

Departure

Time 2026-05-08 00:17
Airport Boston Logan International Airport (KBOS)

Arrival

Time 2026-05-08 00:37
Airport Cape Cod Gateway Airport (KHYA)
Time Latitude Longitude Altitude Speed Heading
2026-05-07 23:55 42.36542 -71.01572 21 ft 0 kts 158°
2026-05-08 00:06 42.36541 -71.01572 21 ft 1 kts 157°
2026-05-08 00:06 42.36534 -71.01568 2 ft 1 kts 156°
2026-05-08 00:06 42.36519 -71.01564 21 ft 3 kts 206°
2026-05-08 00:07 42.36506 -71.01575 21 ft 2 kts 210°
2026-05-08 00:07 42.36505 -71.01576 21 ft 0 kts 210°
2026-05-08 00:08 42.36503 -71.01577 21 ft 2 kts 210°
2026-05-08 00:09 42.36459 -71.01594 21 ft 14 kts 151°
2026-05-08 00:09 42.36392 -71.01466 21 ft 14 kts 118°
2026-05-08 00:09 42.36349 -71.01345 21 ft 15 kts 122°
2026-05-08 00:09 42.36292 -71.01218 21 ft 17 kts 123°
2026-05-08 00:10 42.36233 -71.01065 21 ft 20 kts 114°
2026-05-08 00:10 42.36174 -71.00889 21 ft 19 kts 114°
2026-05-08 00:10 42.36119 -71.00715 22 ft 21 kts 110°
2026-05-08 00:10 42.36075 -71.00541 21 ft 18 kts 108°
2026-05-08 00:11 42.36054 -71.00459 22 ft 6 kts 108°
2026-05-08 00:11 42.36034 -71.00379 21 ft 13 kts 109°
2026-05-08 00:11 42.35992 -71.00212 21 ft 24 kts 109°
2026-05-08 00:11 42.35958 -71.00078 23 ft 10 kts 107°
2026-05-08 00:12 42.35950 -70.99979 21 ft 4 kts 78°
2026-05-08 00:12 42.35955 -70.99953 21 ft 8 kts 76°
2026-05-08 00:12 42.35979 -70.99828 21 ft 19 kts 77°
2026-05-08 00:12 42.36016 -70.99625 21 ft 19 kts 77°
2026-05-08 00:13 42.36049 -70.99430 21 ft 24 kts 78°
2026-05-08 00:13 42.36086 -70.99218 21 ft 15 kts 76°
2026-05-08 00:13 42.36117 -70.99038 21 ft 18 kts 76°
2026-05-08 00:13 42.36136 -70.98937 21 ft 13 kts 76°
2026-05-08 00:14 42.36132 -70.98867 22 ft 6 kts 126°
2026-05-08 00:14 42.36107 -70.98844 21 ft 0 kts 170°
2026-05-08 00:15 42.36079 -70.98836 21 ft 9 kts 167°
2026-05-08 00:15 42.36010 -70.98862 21 ft 2 kts 255°
2026-05-08 00:15 42.36002 -70.98901 21 ft 15 kts 257°
2026-05-08 00:16 42.35937 -70.99267 21 ft 63 kts 256°
2026-05-08 00:16 42.35797 -71.00028 36 ft 101 kts 259°
2026-05-08 00:16 42.35612 -71.01050 248 ft 118 kts 258°
2026-05-08 00:16 42.35307 -71.02098 589 ft 127 kts 236°
2026-05-08 00:17 42.34525 -71.02723 875 ft 139 kts 205°
2026-05-08 00:17 42.33548 -71.03108 1095 ft 154 kts 200°
2026-05-08 00:17 42.32520 -71.03537 1502 ft 149 kts 202°
2026-05-08 00:17 42.31842 -71.03820 1733 ft 154 kts 201°
2026-05-08 00:18 42.30441 -71.04313 2216 ft 158 kts 199°
2026-05-08 00:18 42.29367 -71.04696 2535 ft 161 kts 201°
2026-05-08 00:18 42.28283 -71.05099 2879 ft 162 kts 201°
2026-05-08 00:18 42.27197 -71.05499 3241 ft 162 kts 201°
2026-05-08 00:19 42.26473 -71.05761 3484 ft 161 kts 200°
2026-05-08 00:19 42.25398 -71.06155 3854 ft 160 kts 201°
2026-05-08 00:19 42.24329 -71.06543 4212 ft 159 kts 201°
2026-05-08 00:19 42.23249 -71.06938 4495 ft 164 kts 201°
2026-05-08 00:20 42.22118 -71.07365 4687 ft 173 kts 201°
2026-05-08 00:20 42.20946 -71.07813 4892 ft 177 kts 201°
2026-05-08 00:20 42.19727 -71.08168 5022 ft 189 kts 183°
2026-05-08 00:20 42.18483 -71.07448 5005 ft 206 kts 139°
2026-05-08 00:21 42.17767 -71.05768 5010 ft 212 kts 106°
2026-05-08 00:21 42.17349 -71.03838 5009 ft 216 kts 105°
2026-05-08 00:21 42.16896 -71.01889 5008 ft 219 kts 107°
2026-05-08 00:21 42.16425 -70.99927 5001 ft 220 kts 107°
2026-05-08 00:22 42.15952 -70.97952 5001 ft 222 kts 107°
2026-05-08 00:22 42.15479 -70.95973 5002 ft 223 kts 107°
2026-05-08 00:22 42.15001 -70.93979 5000 ft 223 kts 107°
2026-05-08 00:22 42.14527 -70.92000 5003 ft 224 kts 107°
2026-05-08 00:23 42.14047 -70.89997 5002 ft 224 kts 107°
2026-05-08 00:23 42.13568 -70.88004 5000 ft 223 kts 107°
2026-05-08 00:23 42.13097 -70.86040 5001 ft 223 kts 108°
2026-05-08 00:23 42.12613 -70.84032 5000 ft 222 kts 108°
2026-05-08 00:24 42.12137 -70.82058 5000 ft 221 kts 108°
2026-05-08 00:24 42.11670 -70.80116 5006 ft 221 kts 108°
2026-05-08 00:24 42.11183 -70.78152 5000 ft 220 kts 113°
2026-05-08 00:24 42.10204 -70.76604 5000 ft 219 kts 144°
2026-05-08 00:25 42.09005 -70.75353 5002 ft 219 kts 142°
2026-05-08 00:25 42.07832 -70.74036 5003 ft 220 kts 141°
2026-05-08 00:25 42.06666 -70.72702 5002 ft 220 kts 141°
2026-05-08 00:25 42.05494 -70.71370 5007 ft 220 kts 141°
2026-05-08 00:26 42.04327 -70.70049 5016 ft 220 kts 141°
2026-05-08 00:26 42.03153 -70.68722 5008 ft 220 kts 141°
2026-05-08 00:26 42.01980 -70.67395 5009 ft 220 kts 141°
2026-05-08 00:26 42.00813 -70.66073 5012 ft 220 kts 141°
2026-05-08 00:27 41.99636 -70.64743 5011 ft 220 kts 141°
2026-05-08 00:27 41.98463 -70.63419 5011 ft 220 kts 141°
2026-05-08 00:27 41.97291 -70.62094 5011 ft 220 kts 141°
2026-05-08 00:27 41.96123 -70.60776 5010 ft 220 kts 141°
2026-05-08 00:28 41.94948 -70.59451 5010 ft 220 kts 141°
2026-05-08 00:28 41.93776 -70.58129 5011 ft 220 kts 141°
2026-05-08 00:28 41.92609 -70.56814 5012 ft 219 kts 141°
2026-05-08 00:28 41.91440 -70.55497 5010 ft 219 kts 141°
2026-05-08 00:29 41.90272 -70.54181 5008 ft 219 kts 141°
2026-05-08 00:29 41.89105 -70.52868 5009 ft 219 kts 141°
2026-05-08 00:29 41.87937 -70.51554 5008 ft 219 kts 141°
2026-05-08 00:29 41.86780 -70.50254 5007 ft 220 kts 141°
2026-05-08 00:30 41.85610 -70.48939 5008 ft 220 kts 141°
2026-05-08 00:30 41.84451 -70.47637 5013 ft 215 kts 141°
2026-05-08 00:30 41.83316 -70.46362 5011 ft 212 kts 141°
2026-05-08 00:30 41.82191 -70.45098 5013 ft 210 kts 141°
2026-05-08 00:31 41.81077 -70.43851 4960 ft 208 kts 141°
2026-05-08 00:31 41.79972 -70.42611 4799 ft 205 kts 141°
2026-05-08 00:31 41.78890 -70.41398 4625 ft 202 kts 141°
2026-05-08 00:31 41.77824 -70.40205 4446 ft 197 kts 141°
2026-05-08 00:32 41.76782 -70.39036 4273 ft 194 kts 141°
2026-05-08 00:32 41.75754 -70.37887 4091 ft 192 kts 141°
2026-05-08 00:32 41.74738 -70.36750 3899 ft 191 kts 141°
2026-05-08 00:32 41.73715 -70.35605 3625 ft 193 kts 141°
2026-05-08 00:33 41.72675 -70.34418 3360 ft 196 kts 140°
2026-05-08 00:33 41.71623 -70.33236 3016 ft 202 kts 141°
2026-05-08 00:33 41.70788 -70.31815 2850 ft 186 kts 107°
2026-05-08 00:33 41.70787 -70.30152 2370 ft 178 kts 69°
2026-05-08 00:34 41.71221 -70.28619 1937 ft 175 kts 63°
2026-05-08 00:34 41.71677 -70.27177 1760 ft 161 kts 63°
2026-05-08 00:34 41.72114 -70.25828 1475 ft 156 kts 61°
2026-05-08 00:34 41.72215 -70.24450 1382 ft 152 kts 107°
2026-05-08 00:35 41.71557 -70.23366 1110 ft 154 kts 150°
2026-05-08 00:35 41.70561 -70.22953 934 ft 146 kts 182°
2026-05-08 00:35 41.69625 -70.23251 811 ft 137 kts 215°
2026-05-08 00:35 41.68977 -70.24148 631 ft 135 kts 234°
2026-05-08 00:36 41.68447 -70.25150 475 ft 126 kts 232°
2026-05-08 00:36 41.67886 -70.26024 277 ft 125 kts 230°
2026-05-08 00:36 41.67328 -70.26898 64 ft 118 kts 230°
2026-05-08 00:36 41.66871 -70.27631 59 ft 73 kts 230°
2026-05-08 00:37 41.66625 -70.28018 64 ft 49 kts 231°
2026-05-08 00:37 41.66496 -70.28223 64 ft 12 kts 228°
2026-05-08 00:37 41.66514 -70.28291 66 ft 8 kts 324°
2026-05-08 00:38 41.66586 -70.28377 63 ft 12 kts 319°
2026-05-08 00:38 41.66662 -70.28462 62 ft 15 kts 319°
2026-05-08 00:38 41.66726 -70.28536 56 ft 5 kts 311°
2026-05-08 00:38 41.66710 -70.28574 62 ft 8 kts 230°
2026-05-08 00:39 41.66702 -70.28627 62 ft 5 kts 322°
2026-05-08 00:39 41.66705 -70.28630 62 ft 0 kts 321°